Simultaneous Nadir Overpasses (SNOs) Predictions

Prediction of SNOs between GOES-16 and LANDSAT-8 Satellite Orbit:

Table of predicted SNOs for the next 14.0 days since TLE Epoch: 12/28/2019
Index Date Time (GOES-16) GOES-16 Lat,Lon LANDSAT-8 Lat,Lon Distance(km) Time Diff (sec)
1 12/28/2019 14:57:13 0.02, -75.20 -0.88, -70.93 484.89 80
2 12/29/2019 03:15:56 -0.02, -75.20 -0.23, -76.13 105.93 80
3 12/31/2019 03:06:24 -0.03, -75.21 0.39, -73.17 232.18 80
4 12/31/2019 15:25:00 0.03, -75.22 0.67, -78.33 352.94 80
5 01/02/2020 15:12:48 0.03, -75.24 0.04, -75.37 14.20 80
6 01/04/2020 15:03:16 0.04, -75.27 -0.59, -72.41 325.36 80
7 01/05/2020 03:22:00 -0.03, -75.27 -0.52, -77.60 264.95 80
8 01/07/2020 03:12:28 -0.03, -75.30 0.11, -74.65 74.79 80
9 01/09/2020 03:00:16 -0.04, -75.33 0.75, -71.69 414.72 80
10 01/09/2020 15:18:51 0.03, -75.35 0.38, -76.84 170.13 80




NCC Satellite Simultaneous Nadir Overpasses (SNOs) Prediction Service
